DW5338 Weather Reports


Display with metric or nautical units.
time (UTC)temp
F
wind
direction
speed
MPH
gust
MPH
rain 1hr
in
rain 24hr
in
rain mn
in
humidity
%
barometer
mb
20210917151831 40 112 3.0 5.0 0.00 0.00 0.00 87 1027.6
20210917151331 39 0 1.0 3.0 0.00 0.00 0.00 87 1027.6
20210917150831 39 247 0.0 3.0 0.00 0.00 0.00 87 1027.6
20210917150331 39 270 3.0 3.0 0.00 0.00 0.00 87 1027.7
20210917145831 39 0 1.0 2.0 0.00 0.00 0.00 87 1027.7
20210917145331 39 270 0.0 1.0 0.00 0.00 0.00 87 1027.3
20210917144832 39 0 0.0 1.0 0.00 0.00 0.00 87 1027.7
20210917144331 39 292 0.0 2.0 0.00 0.00 0.00 87 1027.7
20210917143831 39 292 1.0 5.0 0.00 0.00 0.00 87 1027.7
20210917143331 39 157 3.0 5.0 0.00 0.00 0.00 88 1027.8
20210917142831 38 135 1.0 3.0 0.00 0.00 0.00 88 1027.8
20210917142331 38 180 1.0 3.0 0.00 0.00 0.00 88 1027.8
20210917141831 38 292 0.0 0.0 0.00 0.00 0.00 88 1027.5
20210917141331 38 247 0.0 2.0 0.00 0.00 0.00 88 1027.8
20210917140831 38 247 0.0 1.0 0.00 0.00 0.00 88 1027.8
20210917140331 38 180 0.0 3.0 0.00 0.00 0.00 87 1027.6
20210917135831 38 90 1.0 2.0 0.00 0.00 0.00 87 1027.6
20210917135331 38 270 0.0 2.0 0.00 0.00 0.00 87 1027.6
20210917134831 38 22 1.0 3.0 0.00 0.00 0.00 87 1027.6
20210917134331 38 135 1.0 4.0 0.00 0.00 0.00 87 1027.6
20210917133831 38 135 0.0 7.0 0.00 0.00 0.00 88 1027.3
20210917133331 38 157 3.0 4.0 0.00 0.00 0.00 88 1027.7
20210917132831 38 135 1.0 3.0 0.00 0.00 0.00 88 1027.3
20210917132331 37 90 1.0 2.0 0.00 0.00 0.00 88 1027.4
20210917131831 37 202 1.0 3.0 0.00 0.00 0.00 88 1027.4
20210917131331 37 112 0.0 3.0 0.00 0.00 0.00 88 1027.4
20210917130831 37 247 0.0 0.0 0.00 0.00 0.00 87 1027.1
20210917130331 37 225 0.0 3.0 0.00 0.00 0.00 87 1027.1
20210917125831 37 112 0.0 0.0 0.00 0.00 0.00 87 1027.1
20210917125331 37 0 0.0 0.0 0.00 0.00 0.00 87 1027.2
20210917124831 37 292 0.0 3.0 0.00 0.00 0.00 87 1027.2
20210917124331 37 0 0.0 2.0 0.00 0.00 0.00 87 1027.2
20210917123831 37 67 1.0 4.0 0.00 0.00 0.00 87 1027.2
20210917123331 36 270 0.0 0.0 0.00 0.00 0.00 86 1026.9
20210917122833 36 22 1.0 3.0 0.00 0.00 0.00 86 1027.2
20210917122331 36 22 1.0 4.0 0.00 0.00 0.00 86 1026.9
20210917121831 36 45 2.0 5.0 0.00 0.00 0.00 85 1027.0
20210917121331 37 45 3.0 5.0 0.00 0.00 0.00 84 1027.0
20210917120831 37 0 2.0 5.0 0.00 0.00 0.00 84 1026.7
20210917120331 37 45 3.0 5.0 0.00 0.00 0.00 83 1027.0
20210917115831 37 292 1.0 3.0 0.00 0.00 0.00 83 1026.7
20210917115331 38 45 1.0 4.0 0.00 0.00 0.00 82 1026.8
20210917114831 38 315 0.0 4.0 0.00 0.00 0.00 82 1026.8
20210917114331 38 225 1.0 5.0 0.00 0.00 0.00 81 1026.5
20210917113831 38 67 5.0 5.0 0.00 0.00 0.00 81 1026.8
20210917113331 39 337 3.0 3.0 0.00 0.00 0.00 80 1026.8
20210917112831 39 0 0.0 3.0 0.00 0.00 0.00 80 1026.9
20210917112331 39 337 2.0 4.0 0.00 0.00 0.00 79 1026.6
20210917111831 39 22 3.0 3.0 0.00 0.00 0.00 79 1026.6
20210917111331 40 337 0.0 3.0 0.00 0.00 0.00 78 1026.6
20210917110831 40 45 2.0 3.0 0.00 0.00 0.00 77 1026.6
20210917110331 40 337 1.0 3.0 0.00 0.00 0.00 76 1026.7
20210917105831 41 0 3.0 6.0 0.00 0.00 0.00 75 1026.7
20210917105331 42 337 4.0 6.0 0.00 0.00 0.00 74 1026.7
20210917104831 43 315 3.0 3.0 0.00 0.00 0.00 74 1026.7
20210917104331 43 22 0.0 3.0 0.00 0.00 0.00 73 1026.4
20210917103831 44 22 1.0 3.0 0.00 0.00 0.00 73 1026.4
20210917103331 44 22 0.0 3.0 0.00 0.00 0.00 73 1026.5
20210917102831 44 292 0.0 3.0 0.00 0.00 0.00 72 1026.2
20210917102331 44 315 1.0 3.0 0.00 0.00 0.00 72 1026.5
20210917101831 44 22 3.0 4.0 0.00 0.00 0.00 71 1026.5
20210917101331 45 90 1.0 4.0 0.00 0.00 0.00 70 1026.6
20210917100831 45 67 3.0 5.0 0.00 0.00 0.00 70 1026.3
20210917100331 45 67 5.0 5.0 0.00 0.00 0.00 69 1026.3
20210917095831 45 0 1.0 5.0 0.00 0.00 0.00 68 1026.3
20210917095331 45 67 5.0 5.0 0.00 0.00 0.00 67 1026.3
20210917094831 46 22 2.0 4.0 0.00 0.00 0.00 67 1026.3
20210917094331 46 135 1.0 5.0 0.00 0.00 0.00 66 1026.0
20210917093831 46 90 4.0 5.0 0.00 0.00 0.00 66 1026.1
20210917093331 47 45 4.0 6.0 0.00 0.00 0.00 64 1026.4
20210917092831 47 45 3.0 6.0 0.00 0.00 0.00 63 1026.1
20210917092331 48 67 2.0 3.0 0.00 0.00 0.00 63 1026.1
20210917091831 48 45 1.0 2.0 0.00 0.00 0.00 62 1026.1
20210917091331 48 112 1.0 2.0 0.00 0.00 0.00 61 1026.1
20210917090831 48 157 0.0 1.0 0.00 0.00 0.00 61 1025.8
20210917090331 48 225 0.0 3.0 0.00 0.00 0.00 61 1025.9
20210917085831 48 202 1.0 4.0 0.00 0.00 0.00 61 1025.9
20210917085331 48 202 1.0 2.0 0.00 0.00 0.00 60 1025.9
20210917084831 48 180 0.0 3.0 0.00 0.00 0.00 60 1025.6
20210917084331 48 202 2.0 3.0 0.00 0.00 0.00 60 1025.6
20210917083831 48 225 0.0 3.0 0.00 0.00 0.00 60 1025.6
20210917083331 48 270 2.0 3.0 0.00 0.00 0.00 59 1025.6
20210917082831 49 292 0.0 2.0 0.00 0.00 0.00 58 1025.7
20210917082331 49 0 0.0 3.0 0.00 0.00 0.00 57 1025.7
20210917081831 49 112 3.0 5.0 0.00 0.00 0.00 56 1025.4
20210917081331 49 135 0.0 2.0 0.00 0.00 0.00 55 1025.7
20210917080831 49 247 1.0 10.0 0.00 0.00 0.00 54 1025.4
20210917080331 50 22 4.0 10.0 0.00 0.00 0.00 53 1025.4
20210917075831 50 225 0.0 8.0 0.00 0.00 0.00 51 1025.4
20210917075331 51 67 5.0 11.0 0.00 0.00 0.00 49 1025.1
20210917074831 51 22 7.0 11.0 0.00 0.00 0.00 48 1024.8
20210917074331 52 135 8.0 13.0 0.00 0.00 0.00 46 1024.8
20210917073831 53 45 6.0 13.0 0.00 0.00 0.00 43 1024.8
20210917073331 53 90 9.0 14.0 0.00 0.00 0.00 41 1024.5
20210917072831 54 90 6.0 14.0 0.00 0.00 0.00 38 1024.5
20210917072331 54 22 7.0 13.0 0.00 0.00 0.00 33 1024.5
20210917071831 55 135 5.0 11.0 0.00 0.00 0.00 30 1024.2
20210917071331 56 22 3.0 8.0 0.00 0.00 0.00 28 1023.9
20210917070831 56 67 2.0 6.0 0.00 0.00 0.00 28 1023.6
20210917070331 56 90 6.0 8.0 0.00 0.00 0.00 27 1023.6
20210917065831 56 112 4.0 6.0 0.00 0.00 0.00 27 1023.2
20210917065331 56 135 2.0 6.0 0.00 0.00 0.00 26 1022.9
20210917064831 57 135 4.0 8.0 0.00 0.00 0.00 26 1022.9
20210917064331 57 292 3.0 5.0 0.00 0.00 0.00 25 1022.9
20210917063831 57 225 1.0 8.0 0.00 0.00 0.00 25 1022.9
20210917063331 57 270 5.0 6.0 0.00 0.00 0.00 25 1022.9
20210917062831 58 247 1.0 5.0 0.00 0.00 0.00 25 1022.6
20210917062331 58 270 2.0 5.0 0.00 0.00 0.00 25 1022.6
20210917061831 58 225 3.0 6.0 0.00 0.00 0.00 25 1022.6
20210917061331 58 270 4.0 8.0 0.00 0.00 0.00 25 1022.6
20210917060831 59 225 3.0 6.0 0.00 0.00 0.00 25 1022.3
20210917060331 59 225 3.0 7.0 0.00 0.00 0.00 25 1022.0
20210917055831 60 225 5.0 6.0 0.00 0.00 0.00 25 1022.0
20210917055331 60 225 5.0 6.0 0.00 0.00 0.00 24 1021.6
20210917054831 60 225 4.0 8.0 0.00 0.00 0.00 24 1022.0
20210917054331 60 202 6.0 10.0 0.00 0.00 0.00 24 1021.6
20210917053831 60 225 6.0 8.0 0.00 0.00 0.00 24 1021.6
20210917053331 60 247 7.0 7.0 0.00 0.00 0.00 24 1021.6
20210917052831 60 315 6.0 9.0 0.00 0.00 0.00 23 1021.3
20210917052331 60 292 7.0 8.0 0.00 0.00 0.00 23 1021.3
20210917051831 60 270 6.0 8.0 0.00 0.00 0.00 24 1021.3
20210917051331 60 292 6.0 9.0 0.00 0.00 0.00 24 1021.3
20210917050831 60 225 5.0 9.0 0.00 0.00 0.00 24 1021.3
20210917050331 60 270 2.0 8.0 0.00 0.00 0.00 24 1021.3
20210917045831 60 292 3.0 10.0 0.00 0.00 0.00 25 1021.3
20210917045331 60 247 5.0 8.0 0.00 0.00 0.00 25 1021.3
20210917044831 61 202 5.0 7.0 0.00 0.00 0.00 24 1021.3
20210917044331 61 225 5.0 6.0 0.00 0.00 0.00 24 1021.3
20210917043831 61 270 4.0 8.0 0.00 0.00 0.00 24 1021.0
20210917043331 61 247 3.0 8.0 0.00 0.00 0.00 24 1021.0
20210917042831 61 247 6.0 8.0 0.00 0.00 0.00 24 1021.0
20210917042331 62 225 4.0 7.0 0.00 0.00 0.00 24 1021.0
20210917041831 62 247 3.0 11.0 0.00 0.00 0.00 23 1020.9
20210917041331 62 225 5.0 8.0 0.00 0.00 0.00 23 1020.9
20210917040831 62 247 5.0 9.0 0.00 0.00 0.00 23 1020.9
20210917040331 62 247 2.0 9.0 0.00 0.00 0.00 23 1020.9
20210917035831 62 225 4.0 12.0 0.00 0.00 0.00 23 1020.6
20210917035331 62 292 10.0 11.0 0.00 0.00 0.00 24 1020.6
20210917034831 63 270 5.0 12.0 0.00 0.00 0.00 24 1020.6
20210917034331 63 225 5.0 10.0 0.00 0.00 0.00 24 1020.6
20210917033831 63 270 5.0 13.0 0.00 0.00 0.00 24 1020.9
20210917033331 63 292 10.0 16.0 0.00 0.00 0.00 24 1020.6
20210917032831 63 270 6.0 16.0 0.00 0.00 0.00 24 1020.6
20210917032331 63 292 10.0 18.0 0.00 0.00 0.00 24 1020.6
20210917031831 63 270 6.0 16.0 0.00 0.00 0.00 24 1020.5
20210917031331 63 292 13.0 16.0 0.00 0.00 0.00 25 1020.5
20210917030831 64 270 12.0 17.0 0.00 0.00 0.00 25 1020.5
20210917030331 64 270 11.0 16.0 0.00 0.00 0.00 25 1020.5
20210917025831 64 247 10.0 17.0 0.00 0.00 0.00 25 1020.2
20210917025331 64 247 10.0 14.0 0.00 0.00 0.00 25 1020.2
20210917024831 64 225 7.0 18.0 0.00 0.00 0.00 25 1020.1
20210917024331 64 292 6.0 16.0 0.00 0.00 0.00 25 1020.1
20210917023831 64 292 13.0 20.0 0.00 0.00 0.00 25 1019.8
20210917023331 64 292 10.0 14.0 0.00 0.00 0.00 25 1019.8
20210917022831 64 292 10.0 16.0 0.00 0.00 0.00 24 1019.4
20210917022336 65 292 12.0 16.0 0.00 0.00 0.00 24 1019.4
20210917021831 65 292 13.0 21.0 0.00 0.00 0.00 24 1019.4
20210917021331 65 292 16.0 22.0 0.00 0.00 0.00 24 1019.4
20210917020831 66 270 11.0 20.0 0.00 0.00 0.00 24 1019.4
20210917020331 66 292 13.0 19.0 0.00 0.00 0.00 24 1019.3
20210917015831 66 270 12.0 21.0 0.00 0.00 0.00 24 1019.0
20210917015331 66 247 11.0 18.0 0.00 0.00 0.00 24 1019.0
20210917014831 66 270 11.0 23.0 0.00 0.00 0.00 24 1019.0
20210917014331 66 292 11.0 25.0 0.00 0.00 0.00 23 1018.9
20210917013831 66 292 28.0 28.0 0.00 0.00 0.00 23 1018.6
20210917013331 66 270 10.0 17.0 0.00 0.00 0.00 23 1018.5
20210917012832 66 247 10.0 23.0 0.00 0.00 0.00 23 1018.8
20210917012331 67 292 8.0 17.0 0.00 0.00 0.00 23 1018.5
20210917011831 67 270 11.0 19.0 0.00 0.00 0.00 23 1018.2
20210917011332 67 247 10.0 18.0 0.00 0.00 0.00 23 1018.1
20210917010832 67 247 8.0 16.0 0.00 0.00 0.00 23 1018.1
20210917010331 67 292 12.0 20.0 0.00 0.00 0.00 22 1018.1
20210917005831 68 292 8.0 16.0 0.00 0.00 0.00 22 1018.1
20210917005331 68 292 9.0 16.0 0.00 0.00 0.00 22 1017.7
20210917004831 68 225 10.0 16.0 0.00 0.00 0.00 22 1018.0
20210917004331 68 270 12.0 17.0 0.00 0.00 0.00 22 1018.0
20210917003831 68 270 10.0 22.0 0.00 0.00 0.00 22 1018.0
20210917003331 68 247 8.0 18.0 0.00 0.00 0.00 22 1017.6
20210917002831 69 292 10.0 18.0 0.00 0.00 0.00 22 1017.6
20210917002331 69 292 5.0 21.0 0.00 0.00 0.00 21 1017.3
20210917001831 69 292 8.0 21.0 0.00 0.00 0.00 21 1017.6
20210917001331 70 292 8.0 18.0 0.00 0.00 0.00 21 1017.5
20210917000831 70 292 6.0 18.0 0.00 0.00 0.00 21 1017.5
20210917000332 70 315 13.0 18.0 0.00 0.00 0.00 20 1017.2
20210916235831 71 292 9.0 14.0 0.00 0.00 0.00 20 1017.2
20210916235331 71 315 8.0 16.0 0.00 0.00 0.00 20 1017.1
20210916234831 72 292 8.0 19.0 0.00 0.00 0.00 20 1016.8
20210916234331 72 292 14.0 20.0 0.00 0.00 0.00 20 1016.4
20210916233831 72 292 8.0 16.0 0.00 0.00 0.00 20 1016.4
20210916233331 73 247 12.0 18.0 0.00 0.00 0.00 20 1016.4
20210916232831 73 270 6.0 19.0 0.00 0.00 0.00 19 1016.3
20210916232331 73 270 9.0 15.0 0.00 0.00 0.00 19 1016.3
20210916231831 73 247 6.0 17.0 0.00 0.00 0.00 20 1016.3
20210916231331 73 315 11.0 21.0 0.00 0.00 0.00 19 1016.3
20210916230831 73 315 11.0 19.0 0.00 0.00 0.00 19 1015.9
20210916230331 74 292 8.0 16.0 0.00 0.00 0.00 19 1015.9
20210916225831 74 247 10.0 20.0 0.00 0.00 0.00 19 1015.9
20210916225331 74 315 18.0 19.0 0.00 0.00 0.00 19 1015.8
20210916224831 75 292 8.0 15.0 0.00 0.00 0.00 19 1015.8
20210916224331 75 315 12.0 19.0 0.00 0.00 0.00 19 1015.8
20210916223831 75 292 8.0 19.0 0.00 0.00 0.00 19 1016.1
20210916223331 75 337 10.0 15.0 0.00 0.00 0.00 19 1015.7
20210916222831 75 270 7.0 19.0 0.00 0.00 0.00 19 1015.7
20210916222331 75 292 6.0 14.0 0.00 0.00 0.00 19 1015.7
20210916221831 75 292 11.0 16.0 0.00 0.00 0.00 19 1015.6
20210916221331 75 270 13.0 15.0 0.00 0.00 0.00 19 1015.6
20210916220831 75 292 8.0 18.0 0.00 0.00 0.00 19 1015.6
20210916220331 75 247 8.0 19.0 0.00 0.00 0.00 19 1015.6
20210916215831 75 315 1.0 18.0 0.00 0.00 0.00 19 1015.5
20210916215331 75 270 7.0 25.0 0.00 0.00 0.00 19 1015.5
20210916214831 75 202 6.0 18.0 0.00 0.00 0.00 19 1015.8
20210916214331 75 270 8.0 18.0 0.00 0.00 0.00 19 1015.8
20210916213831 75 292 13.0 17.0 0.00 0.00 0.00 19 1015.8
20210916213331 75 315 6.0 11.0 0.00 0.00 0.00 20 1015.7
20210916212831 75 292 11.0 16.0 0.00 0.00 0.00 20 1015.7
20210916212331 74 270 11.0 11.0 0.00 0.00 0.00 20 1015.7
20210916211831 74 292 11.0 22.0 0.00 0.00 0.00 20 1015.7
20210916211331 75 292 11.0 16.0 0.00 0.00 0.00 20 1015.6
20210916210831 75 292 22.0 26.0 0.00 0.00 0.00 20 1015.6
20210916210331 75 292 5.0 14.0 0.00 0.00 0.00 20 1015.6
20210916205831 75 0 5.0 9.0 0.00 0.00 0.00 20 1015.9
20210916205331 75 225 1.0 12.0 0.00 0.00 0.00 20 1015.9
20210916204831 75 315 5.0 16.0 0.00 0.00 0.00 19 1016.1
20210916204331 75 292 16.0 16.0 0.00 0.00 0.00 20 1016.1
20210916203831 75 135 5.0 11.0 0.00 0.00 0.00 20 1016.1
20210916203331 75 315 7.0 14.0 0.00 0.00 0.00 20 1016.1
20210916202831 74 292 10.0 13.0 0.00 0.00 0.00 20 1016.1
20210916202331 75 315 4.0 16.0 0.00 0.00 0.00 20 1016.0
20210916201831 75 247 5.0 15.0 0.00 0.00 0.00 20 1016.0
20210916201331 76 292 8.0 14.0 0.00 0.00 0.00 20 1016.0
20210916200831 76 270 7.0 18.0 0.00 0.00 0.00 19 1016.0
20210916200331 75 292 11.0 11.0 0.00 0.00 0.00 20 1016.3
20210916195831 75 247 7.0 21.0 0.00 0.00 0.00 20 1016.3
20210916195331 75 292 7.0 11.0 0.00 0.00 0.00 20 1016.3
20210916194831 74 247 11.0 17.0 0.00 0.00 0.00 20 1016.6
20210916194331 74 135 7.0 18.0 0.00 0.00 0.00 20 1016.6
20210916193831 74 292 11.0 13.0 0.00 0.00 0.00 20 1016.5
20210916193331 74 270 8.0 19.0 0.00 0.00 0.00 20 1016.5
20210916192831 74 270 10.0 17.0 0.00 0.00 0.00 21 1016.5
20210916192331 74 247 13.0 15.0 0.00 0.00 0.00 21 1016.8
20210916191831 73 202 3.0 13.0 0.00 0.00 0.00 21 1016.8
20210916191331 72 225 3.0 14.0 0.00 0.00 0.00 21 1016.5
20210916190831 72 247 10.0 19.0 0.00 0.00 0.00 22 1016.8
20210916190331 71 270 5.0 19.0 0.00 0.00 0.00 22 1016.8
20210916185831 71 337 5.0 14.0 0.00 0.00 0.00 21 1016.8
20210916185331 71 247 8.0 14.0 0.00 0.00 0.00 21 1016.8
20210916184831 71 270 13.0 14.0 0.00 0.00 0.00 22 1016.8
20210916184331 71 247 6.0 15.0 0.00 0.00 0.00 21 1016.8
20210916183831 71 292 11.0 18.0 0.00 0.00 0.00 21 1016.7
20210916183331 71 270 6.0 26.0 0.00 0.00 0.00 21 1016.7
20210916182831 72 292 17.0 20.0 0.00 0.00 0.00 21 1016.7
20210916182331 72 247 9.0 19.0 0.00 0.00 0.00 21 1016.7
20210916181831 72 292 8.0 19.0 0.00 0.00 0.00 21 1016.7
20210916181331 72 247 11.0 24.0 0.00 0.00 0.00 21 1017.1
20210916180831 71 270 22.0 22.0 0.00 0.00 0.00 22 1017.1
20210916180331 71 315 4.0 16.0 0.00 0.00 0.00 22 1017.1
20210916175831 71 337 1.0 14.0 0.00 0.00 0.00 22 1017.4
20210916175331 71 247 6.0 17.0 0.00 0.00 0.00 22 1017.4
20210916174831 71 292 14.0 16.0 0.00 0.00 0.00 22 1017.4
20210916174331 71 247 11.0 16.0 0.00 0.00 0.00 22 1017.4
20210916173831 71 292 8.0 11.0 0.00 0.00 0.00 22 1017.7
20210916173331 70 247 5.0 17.0 0.00 0.00 0.00 22 1017.7
20210916172831 70 292 14.0 19.0 0.00 0.00 0.00 22 1017.4
20210916172331 70 292 6.0 16.0 0.00 0.00 0.00 23 1017.7
20210916171831 70 315 8.0 16.0 0.00 0.00 0.00 23 1018.0
20210916171331 70 270 9.0 13.0 0.00 0.00 0.00 23 1017.7
20210916170831 69 270 3.0 11.0 0.00 0.00 0.00 24 1018.0
20210916170331 69 270 4.0 19.0 0.00 0.00 0.00 24 1018.0
20210916165831 69 315 7.0 15.0 0.00 0.00 0.00 24 1018.0
20210916165331 69 225 8.0 12.0 0.00 0.00 0.00 24 1018.3
20210916164831 68 292 6.0 13.0 0.00 0.00 0.00 24 1018.3
20210916164331 68 225 9.0 14.0 0.00 0.00 0.00 24 1018.3
20210916163831 68 292 8.0 16.0 0.00 0.00 0.00 24 1018.3
20210916163331 68 90 3.0 13.0 0.00 0.00 0.00 24 1018.6
20210916162831 68 202 8.0 17.0 0.00 0.00 0.00 24 1018.7
20210916162331 68 270 8.0 16.0 0.00 0.00 0.00 24 1018.7
20210916161831 67 202 8.0 13.0 0.00 0.00 0.00 24 1018.7
20210916161331 67 225 8.0 15.0 0.00 0.00 0.00 24 1018.7
20210916160831 67 270 10.0 11.0 0.00 0.00 0.00 24 1018.7
20210916160331 67 225 1.0 10.0 0.00 0.00 0.00 24 1019.0
20210916155831 67 292 6.0 11.0 0.00 0.00 0.00 25 1019.0
20210916155331 67 225 4.0 11.0 0.00 0.00 0.00 25 1019.4
20210916154831 66 292 5.0 11.0 0.00 0.00 0.00 25 1019.4
20210916154331 66 292 13.0 13.0 0.00 0.00 0.00 25 1019.1
20210916153831 65 135 6.0 15.0 0.00 0.00 0.00 25 1019.1
20210916153331 65 270 11.0 12.0 0.00 0.00 0.00 25 1019.4
20210916152831 64 112 2.0 11.0 0.00 0.00 0.00 25 1019.1
20210916152331 64 157 7.0 10.0 0.00 0.00 0.00 25 1019.5